When you browse on this site, cookies collect data to enhance your experience and personalize the content and advertising you see.
Visit our Privacy Policy to learn more. By continuing to use the site, you agree to this use of cookies and data.
  • In Austria
  • List of Countries
  • For 7 days
  • Water Temperature
  • Weather Map
  • News
  • Weather Widgets
  • user-avatar
    Login

    Hourly Weather Shumen

    Today, 15 October, Tuesday

    Time Temperature Precipitation Wind Pressure Humidity
    00:00 +13°C° 0 mm 1 mps 733 mmHg 87%
    01:00 +12°C° 0 mm 1 mps 733 mmHg 87%
    02:00 +12°C° 0 mm 1 mps 733 mmHg 88%
    03:00 +12°C° 0 mm 1 mps 733 mmHg 87%
    04:00 +12°C° 0 mm 1 mps 733 mmHg 86%
    05:00 +11°C° 0 mm 1 mps 732 mmHg 86%
    06:00 +12°C° 0 mm 1 mps 733 mmHg 81%
    07:00 +13°C° 0 mm 1 mps 733 mmHg 77%
    08:00 +14°C° 0 mm 1 mps 733 mmHg 73%
    09:00 +18°C° 0 mm 1 mps 733 mmHg 62%
    10:00 +19°C° 0 mm 2 mps 733 mmHg 51%
    11:00 +21°C° 0 mm 2 mps 733 mmHg 40%
    12:00 +24°C° 0 mm 2 mps 733 mmHg 36%
    13:00 +25°C° 0 mm 2 mps 733 mmHg 33%
    14:00 +26°C° 0 mm 2 mps 733 mmHg 30%
    15:00 +24°C° 0 mm 2 mps 732 mmHg 38%
    16:00 +21°C° 0 mm 2 mps 732 mmHg 47%
    17:00 +20°C° 0 mm 2 mps 731 mmHg 56%
    18:00 +18°C° 0 mm 2 mps 731 mmHg 65%
    19:00 +16°C° 0 mm 2 mps 732 mmHg 74%
    20:00 +14°C° 0 mm 2 mps 732 mmHg 84%
    21:00 +14°C° 0 mm 2 mps 732 mmHg 87%
    22:00 +13°C° 0 mm 2 mps 732 mmHg 90%
    23:00 +13°C° 0 mm 2 mps 732 mmHg 93%

    Tomorrow, 16 October, Wednesday

    Time Temperature Precipitation Wind Pressure Humidity
    00:00 +13°C° 0 mm 1 mps 732 mmHg 93%
    01:00 +12°C° 0 mm 1 mps 732 mmHg 92%
    02:00 +12°C° 0 mm 1 mps 731 mmHg 92%
    03:00 +12°C° 0 mm 1 mps 731 mmHg 91%
    04:00 +12°C° 0 mm 1 mps 731 mmHg 89%
    05:00 +12°C° 0 mm 1 mps 731 mmHg 88%
    06:00 +12°C° 0 mm 1 mps 731 mmHg 86%
    07:00 +13°C° 0 mm 1 mps 732 mmHg 84%
    08:00 +14°C° 0 mm 1 mps 732 mmHg 82%
    09:00 +16°C° 0 mm 1 mps 732 mmHg 71%
    10:00 +20°C° 0 mm 1 mps 732 mmHg 59%
    11:00 +21°C° 0 mm 2 mps 733 mmHg 48%
    12:00 +23°C° 0 mm 2 mps 732 mmHg 43%
    13:00 +24°C° 0 mm 2 mps 732 mmHg 38%
    14:00 +25°C° 0 mm 2 mps 732 mmHg 34%
    15:00 +24°C° 0 mm 2 mps 732 mmHg 39%
    16:00 +23°C° 0 mm 2 mps 731 mmHg 44%
    17:00 +20°C° 0 mm 2 mps 731 mmHg 49%
    18:00 +20°C° 0 mm 1 mps 731 mmHg 56%
    19:00 +18°C° 0 mm 1 mps 731 mmHg 63%
    20:00 +15°C° 0 mm 1 mps 731 mmHg 70%
    21:00 +15°C° 0 mm 1 mps 731 mmHg 74%
    22:00 +14°C° 0 mm 1 mps 732 mmHg 77%
    23:00 +13°C° 0 mm 1 mps 732 mmHg 80%

    Day after tomorrow, 17 October, Thursday

    Time Temperature Precipitation Wind Pressure Humidity
    00:00 +13°C° 0 mm 1 mps 732 mmHg 81%
    01:00 +12°C° 0 mm 0 mps 732 mmHg 81%
    02:00 +11°C° 0 mm 0 mps 731 mmHg 81%
    03:00 +11°C° 0 mm 0 mps 731 mmHg 80%
    04:00 +11°C° 0 mm 0 mps 731 mmHg 79%
    05:00 +11°C° 0 mm 0 mps 731 mmHg 78%
    06:00 +12°C° 0 mm 0 mps 732 mmHg 73%
    07:00 +13°C° 0 mm 0 mps 732 mmHg 68%
    08:00 +14°C° 0 mm 0 mps 732 mmHg 63%
    09:00 +16°C° 0 mm 0 mps 732 mmHg 54%
    10:00 +19°C° 0 mm 0 mps 733 mmHg 45%
    11:00 +21°C° 0 mm 0 mps 733 mmHg 36%
    12:00 +24°C° 0 mm 1 mps 733 mmHg 33%
    13:00 +25°C° 0 mm 1 mps 732 mmHg 29%
    14:00 +26°C° 0 mm 1 mps 732 mmHg 26%
    15:00 +24°C° 0 mm 1 mps 732 mmHg 30%
    16:00 +23°C° 0 mm 1 mps 732 mmHg 34%
    17:00 +22°C° 0 mm 1 mps 732 mmHg 38%
    18:00 +20°C° 0 mm 1 mps 732 mmHg 43%
    19:00 +19°C° 0 mm 1 mps 732 mmHg 48%
    20:00 +16°C° 0 mm 1 mps 732 mmHg 54%
    21:00 +15°C° 0 mm 0 mps 732 mmHg 56%
    22:00 +14°C° 0 mm 0 mps 732 mmHg 57%
    23:00 +14°C° 0 mm 0 mps 732 mmHg 59%

    18 October, Friday

    Time Temperature Precipitation Wind Pressure Humidity
    00:00 +13°C° 0 mm 0 mps 732 mmHg 60%
    01:00 +13°C° 0 mm 0 mps 732 mmHg 61%
    02:00 +13°C° 0 mm 0 mps 732 mmHg 62%
    03:00 +13°C° 0 mm 0 mps 732 mmHg 62%
    04:00 +12°C° 0 mm 0 mps 732 mmHg 62%
    05:00 +12°C° 0 mm 0 mps 732 mmHg 61%
    06:00 +13°C° 0 mm 0 mps 732 mmHg 58%
    07:00 +14°C° 0 mm 0 mps 732 mmHg 54%
    08:00 +15°C° 0 mm 0 mps 733 mmHg 51%
    09:00 +17°C° 0 mm 0 mps 733 mmHg 45%
    10:00 +19°C° 0 mm 0 mps 733 mmHg 40%
    11:00 +24°C° 0 mm 1 mps 734 mmHg 34%
    12:00 +24°C° 0 mm 1 mps 733 mmHg 32%
    13:00 +25°C° 0 mm 1 mps 733 mmHg 30%
    14:00 +26°C° 0 mm 1 mps 733 mmHg 28%
    15:00 +24°C° 0 mm 1 mps 733 mmHg 32%
    16:00 +23°C° 0 mm 1 mps 732 mmHg 35%
    17:00 +22°C° 0 mm 1 mps 732 mmHg 39%
    18:00 +20°C° 0 mm 1 mps 732 mmHg 44%
    19:00 +19°C° 0 mm 1 mps 732 mmHg 50%
    20:00 +16°C° 0 mm 1 mps 732 mmHg 55%
    21:00 +15°C° 0 mm 1 mps 732 mmHg 59%
    22:00 +15°C° 0 mm 1 mps 733 mmHg 63%
    23:00 +14°C° 0 mm 1 mps 733 mmHg 67%

    19 October, Saturday

    Time Temperature Precipitation Wind Pressure Humidity
    00:00 +13°C° 0 mm 0 mps 732 mmHg 69%
    01:00 +13°C° 0 mm 0 mps 732 mmHg 70%
    02:00 +12°C° 0 mm 0 mps 732 mmHg 72%
    03:00 +12°C° 0 mm 0 mps 732 mmHg 72%
    04:00 +12°C° 0 mm 0 mps 732 mmHg 72%
    05:00 +12°C° 0 mm 0 mps 732 mmHg 73%
    06:00 +12°C° 0 mm 0 mps 733 mmHg 69%
    07:00 +13°C° 0 mm 0 mps 733 mmHg 65%
    08:00 +14°C° 0 mm 0 mps 733 mmHg 61%
    09:00 +18°C° 0 mm 1 mps 733 mmHg 53%
    10:00 +20°C° 0 mm 1 mps 734 mmHg 45%
    11:00 +21°C° 0 mm 2 mps 734 mmHg 37%
    12:00 +23°C° 0 mm 2 mps 734 mmHg 34%
    13:00 +24°C° 0 mm 2 mps 733 mmHg 31%
    14:00 +25°C° 0 mm 2 mps 733 mmHg 29%
    15:00 +23°C° 0 mm 2 mps 733 mmHg 33%
    16:00 +21°C° 0 mm 2 mps 733 mmHg 38%
    17:00 +20°C° 0 mm 2 mps 733 mmHg 42%
    18:00 +18°C° 0 mm 2 mps 733 mmHg 49%
    19:00 +17°C° 0 mm 2 mps 733 mmHg 56%
    20:00 +15°C° 0 mm 1 mps 733 mmHg 62%
    21:00 +15°C° 0 mm 1 mps 733 mmHg 67%
    22:00 +14°C° 0 mm 1 mps 733 mmHg 72%
    23:00 +13°C° 0 mm 1 mps 733 mmHg 76%

    20 October, Sunday

    Time Temperature Precipitation Wind Pressure Humidity
    00:00 +13°C° 0 mm 1 mps 733 mmHg 79%
    01:00 +12°C° 0 mm 1 mps 733 mmHg 82%
    02:00 +12°C° 0 mm 1 mps 733 mmHg 85%
    03:00 +12°C° 0 mm 1 mps 733 mmHg 86%
    04:00 +12°C° 0 mm 1 mps 733 mmHg 87%
    05:00 +11°C° 0 mm 1 mps 733 mmHg 88%
    06:00 +12°C° 0 mm 1 mps 733 mmHg 85%
    07:00 +13°C° 0 mm 1 mps 733 mmHg 82%
    08:00 +14°C° 0 mm 1 mps 733 mmHg 78%
    09:00 +16°C° 0 mm 2 mps 734 mmHg 67%
    10:00 +18°C° 0 mm 2 mps 734 mmHg 56%
    11:00 +21°C° 0 mm 2 mps 734 mmHg 45%
    12:00 +21°C° 0 mm 3 mps 734 mmHg 41%
    13:00 +22°C° 0 mm 3 mps 734 mmHg 38%
    14:00 +24°C° 0 mm 3 mps 734 mmHg 35%
    15:00 +22°C° 0 mm 3 mps 733 mmHg 41%
    16:00 +20°C° 0 mm 3 mps 733 mmHg 47%
    17:00 +19°C° 0 mm 3 mps 733 mmHg 52%
    18:00 +17°C° 0 mm 2 mps 733 mmHg 59%
    19:00 +16°C° 0 mm 2 mps 733 mmHg 65%
    20:00 +14°C° 0 mm 2 mps 733 mmHg 72%
    21:00 +14°C° 0 mm 2 mps 734 mmHg 75%
    22:00 +13°C° 0 mm 2 mps 734 mmHg 77%
    23:00 +13°C° 0 mm 2 mps 734 mmHg 80%
    Show more